Worcester, MA

11:34 AM EDT on March 23, 2017 (GMT -0400)
Worcester Regional

Weather History for KORH - May, 2014

Change the Weather History Date:

Monday, May 26, 2014

  Actual Average Record
Temperature  
Mean Temperature 67 °F 59 °F  
Max Temperature 78 °F 69 °F 94 °F (2010)
Min Temperature 55 °F 50 °F 35 °F (1972)
Degree Days  
Heating Degree Days 0 7  
Month to date heating degree days 205 257  
Since 1 July heating degree days 6970 6604  
Cooling Degree Days 2 1  
Month to date cooling degree days 8 11  
Year to date cooling degree days 8 14  
Growing Degree Days 16 (Base 50)    
Moisture  
Dew Point 52 °F    
Average Humidity 65    
Maximum Humidity 86    
Minimum Humidity 43    
Precipitation  
Precipitation 0.01 in 0.15 in 1.73 in (2003)
Month to date precipitation 3.68 3.45  
Year to date precipitation 20.72 18.49  
Snow  
Snow 0.00 in 0.00 in T in (1927)
Month to date snowfall 0.0 0.0  
Since 1 July snowfall 85.2 64.1  
Snow Depth 0.00 in    
Sea Level Pressure  
Sea Level Pressure 29.93 in    
Wind  
Wind Speed 14 mph (West)    
Max Wind Speed 26 mph    
Max Gust Speed 37 mph    
Visibility 10 miles    
Events Rain    
T = Trace of Precipitation, MM = Missing Value Source: NWS Daily Summary

Daily Weather History Graph

Daily Weather History Graph

Search for Another Location

Airport or City:

Trip Planner

Search our weather history database for the weather conditions in past years. The results will help you decide how hot, cold, wet, or windy it might be!

Date:

Astronomy

May. 26, 2014 Rise Set
Actual Time 5:17 AM EDT 8:12 PM EDT
Civil Twilight 4:43 AM EDT 8:45 PM EDT
Nautical Twilight 4:01 AM EDT 9:28 PM EDT
Astronomical Twilight 3:12 AM EDT 10:17 PM EDT
Moon 4:00 AM EDT (5/26) 6:09 PM EDT (5/26)
Length of Visible Light 16h 02m
Length of Day
14h 55m
Waning Crescent, 5% of the Moon is Illuminated
May 26
Waning Crescent
May 28
New
Jun 5
First Quarter
Jun 13
Full
Jun 19
Last Quarter

Hourly Weather History & Observations

Time (EDT) Temp. Dew Point Humidity Pressure Visibility Wind Dir Wind Speed Gust Speed Precip Events Conditions
12:54 AM 55.0 °F 51.1 °F 86% 30.01 in 10.0 mi West 11.5 mph - N/A   Clear
1:54 AM 55.9 °F 50.0 °F 80% 30.00 in 10.0 mi West 12.7 mph - N/A   Clear
2:54 AM 57.0 °F 48.0 °F 72% 29.99 in 10.0 mi West 11.5 mph - N/A   Clear
3:54 AM 57.0 °F 48.9 °F 74% 29.99 in 10.0 mi West 11.5 mph - N/A   Clear
4:54 AM 57.0 °F 48.0 °F 72% 29.98 in 10.0 mi West 12.7 mph - N/A   Clear
5:54 AM 57.9 °F 48.9 °F 72% 29.99 in 10.0 mi West 12.7 mph - N/A   Clear
6:54 AM 55.0 °F 51.1 °F 86% 29.99 in 10.0 mi West 13.8 mph - 0.01 in Rain Light Rain
7:54 AM 57.9 °F 52.0 °F 81% 30.00 in 10.0 mi West 12.7 mph - 0.00 in   Scattered Clouds
8:54 AM 60.1 °F 52.0 °F 75% 29.98 in 10.0 mi West 17.3 mph - 0.00 in   Mostly Cloudy
9:54 AM 64.9 °F 51.1 °F 61% 29.96 in 10.0 mi West 21.9 mph 26.5 mph N/A   Partly Cloudy
10:54 AM 68.0 °F 52.0 °F 56% 29.94 in 10.0 mi West 21.9 mph 29.9 mph N/A   Clear
11:54 AM 69.1 °F 52.0 °F 54% 29.94 in 10.0 mi West 21.9 mph 29.9 mph N/A   Clear
12:54 PM 66.9 °F 53.1 °F 61% 29.94 in 10.0 mi West 17.3 mph 27.6 mph 0.00 in   Overcast
1:54 PM 69.1 °F 53.1 °F 57% 29.91 in 10.0 mi West 17.3 mph - N/A   Clear
2:54 PM 73.0 °F 51.1 °F 46% 29.89 in 10.0 mi WSW 21.9 mph 32.2 mph N/A   Clear
3:54 PM 75.0 °F 53.1 °F 46% 29.88 in 10.0 mi West 15.0 mph 23.0 mph N/A   Clear
4:54 PM 75.9 °F 54.0 °F 46% 29.86 in 10.0 mi WSW 13.8 mph - N/A   Clear
5:54 PM 77.0 °F 54.0 °F 45% 29.84 in 10.0 mi West 11.5 mph 20.7 mph N/A   Scattered Clouds
6:54 PM 75.0 °F 54.0 °F 48% 29.84 in 10.0 mi West 9.2 mph - N/A   Clear
7:54 PM 72.0 °F 53.1 °F 51% 29.85 in 10.0 mi West 8.1 mph - N/A   Clear
8:54 PM 70.0 °F 53.1 °F 55% 29.86 in 10.0 mi West 8.1 mph - N/A   Clear
9:54 PM 70.0 °F 52.0 °F 53% 29.86 in 10.0 mi West 9.2 mph - N/A   Clear
10:54 PM 69.1 °F 52.0 °F 54% 29.86 in 10.0 mi West 10.4 mph - N/A   Clear
11:54 PM 69.1 °F 51.1 °F 53% 29.86 in 10.0 mi West 12.7 mph - N/A   Clear